Location: Hysolar-Haus
(48.7436°N, 9.0965°E)
Time: 04:00:30
(UTC+00:00)

Transit 4A - All Passes

Search period start: 13 November 2019 00:00
Search period end: 23 November 2019 00:00
Orbit: 868 x 976 km, 66.8° (Epoch: 12 November)

Date Brightness Start Highest point End Pass type
(mag) Time Alt. Az. Time Alt. Az. Time Alt. Az.
13 Nov - 00:44:03 10° W 00:49:26 29° NW 00:54:43 10° NNE visible
13 Nov - 02:34:37 10° NW 02:37:55 15° N 02:41:10 10° NNE visible
13 Nov - 04:23:07 10° NNW 04:26:54 17° NNE 04:30:38 10° ENE visible
13 Nov - 06:09:17 10° NNW 06:14:57 42° NE 06:20:28 10° ESE daylight
13 Nov - 07:55:46 10° NW 08:01:23 45° WSW 08:06:52 10° S daylight
13 Nov - 21:21:11 10° SSE 21:26:00 23° ESE 21:30:43 10° ENE night (unlit)
13 Nov - 23:05:30 10° SW 23:11:48 77° NW 23:17:56 10° NNE night (unlit)
14 Nov - 00:54:12 10° W 00:59:08 24° NNW 01:03:59 10° NNE visible
14 Nov - 02:44:48 10° NW 02:47:50 14° N 02:50:50 10° NNE visible
14 Nov - 04:32:29 10° NNW 04:36:44 19° NNE 04:40:54 10° ENE visible
14 Nov - 06:18:35 10° NNW 06:24:27 55° NE 06:30:11 10° SE daylight
14 Nov - 08:05:23 10° NW 08:10:32 32° WSW 08:15:35 10° S daylight
14 Nov - 21:29:35 10° S 21:35:05 33° ESE 21:40:30 10° NE night (unlit)
14 Nov - 23:15:03 10° SW 23:21:13 57° NW 23:27:15 10° NNE night (unlit)
15 Nov - 01:04:26 10° WNW 01:08:53 20° NNW 01:13:17 10° NNE visible
15 Nov - 02:54:46 10° NNW 02:57:46 14° N 03:00:44 10° NNE visible
15 Nov - 04:41:48 10° NNW 04:46:31 23° NNE 04:51:06 10° E visible
15 Nov - 06:27:54 10° NNW 06:33:53 75° NE 06:39:43 10° SE daylight
15 Nov - 08:15:13 10° WNW 08:19:36 22° WSW 08:23:56 10° SSW daylight
15 Nov - 21:38:18 10° S 21:44:15 47° ESE 21:50:06 10° NE night (unlit)
15 Nov - 23:24:47 10° WSW 23:30:43 44° NW 23:36:32 10° NNE night (unlit)
16 Nov - 01:14:45 10° WNW 01:18:43 17° NNW 01:22:37 10° NNE visible
16 Nov - 03:04:32 10° NNW 03:07:42 14° N 03:10:49 10° NE visible
16 Nov - 04:51:06 10° NNW 04:56:13 28° NE 05:01:12 10° E visible
16 Nov - 06:37:16 10° NW 06:43:14 80° WSW 06:49:02 10° SSE daylight
16 Nov - 08:25:29 10° WNW 08:28:36 15° WSW 08:31:42 10° SW daylight
16 Nov - 20:05:53 10° ESE 20:08:14 12° E 20:10:35 10° ENE night (unlit)
16 Nov - 21:47:18 10° SSW 21:53:30 65° ESE 21:59:34 10° NE night (unlit)
16 Nov - 23:34:41 10° WSW 23:40:17 34° NW 23:45:47 10° NNE night (unlit)
17 Nov - 01:25:05 10° NW 01:28:35 15° NNW 01:32:03 10° NNE visible
17 Nov - 03:14:06 10° NNW 03:17:36 15° NNE 03:21:03 10° NE visible
17 Nov - 05:00:22 10° NNW 05:05:50 35° NE 05:11:10 10° ESE visible
17 Nov - 06:46:42 10° NW 06:52:30 57° WSW 06:58:10 10° SSE daylight
17 Nov - 20:13:07 10° SSE 20:17:13 19° ESE 20:21:17 10° ENE night (unlit)
17 Nov - 21:56:32 10° SSW 22:02:49 89° SE 22:08:58 10° NE night (unlit)
17 Nov - 23:44:44 10° W 23:49:57 27° NW 23:55:03 10° NNE night (unlit)
18 Nov - 01:35:21 10° NW 01:38:30 14° N 01:41:36 10° NNE visible
18 Nov - 03:23:32 10° NNW 03:27:27 17° NNE 03:31:19 10° ENE visible
18 Nov - 05:09:39 10° NNW 05:15:23 46° NE 05:20:59 10° ESE visible
18 Nov - 06:56:13 10° NW 07:01:41 40° WSW 07:07:02 10° S daylight
18 Nov - 20:21:11 10° SSE 20:26:16 27° ESE 20:31:17 10° NE night (unlit)
18 Nov - 22:05:57 10° SW 22:12:11 69° NW 22:18:17 10° NNE night (unlit)
18 Nov - 23:54:54 10° W 23:59:39 22° NNW 00:04:19 10° NNE night (unlit)
19 Nov - 01:45:27 10° NNW 01:48:25 14° N 01:51:21 10° NNE visible
19 Nov - 03:32:52 10° NNW 03:37:16 20° NNE 03:41:34 10° ENE visible
19 Nov - 05:18:57 10° NNW 05:24:52 62° NE 05:30:37 10° SE visible
19 Nov - 07:05:55 10° NW 07:10:48 28° WSW 07:15:38 10° SSW daylight
19 Nov - 20:29:43 10° S 20:35:24 37° ESE 20:40:58 10° NE night (unlit)
19 Nov - 22:15:34 10° WSW 22:21:38 52° NW 22:27:35 10° NNE night (unlit)
20 Nov - 00:05:11 10° WNW 00:09:26 19° NNW 00:13:38 10° NNE night (unlit)
20 Nov - 01:55:21 10° NNW 01:58:21 14° N 02:01:19 10° NE visible
20 Nov - 03:42:11 10° NNW 03:47:01 25° NNE 03:51:44 10° E visible
20 Nov - 05:28:17 10° NW 05:34:15 84° NE 05:40:05 10° SE visible
20 Nov - 07:15:51 10° WNW 07:19:51 19° WSW 07:23:48 10° SSW daylight
20 Nov - 20:38:33 10° SSW 20:44:36 53° ESE 20:50:31 10° NE night (unlit)
20 Nov - 22:25:22 10° WSW 22:31:10 40° NW 22:36:51 10° NNE night (unlit)
21 Nov - 00:15:31 10° NW 00:19:17 16° NNW 00:22:59 10° NNE visible
21 Nov - 02:05:02 10° NNW 02:08:16 15° N 02:11:28 10° NE visible
21 Nov - 03:51:28 10° NNW 03:56:41 30° NE 04:01:48 10° E visible
21 Nov - 05:37:40 10° NW 05:43:35 71° WSW 05:49:21 10° SSE visible
21 Nov - 07:26:26 10° WNW 07:28:49 13° W 07:31:11 10° SW daylight
21 Nov - 19:05:21 10° SE 19:08:29 14° ESE 19:11:35 10° ENE night (unlit)
21 Nov - 20:47:37 10° SSW 20:53:51 73° ESE 20:59:58 10° NE night (unlit)
21 Nov - 22:35:19 10° W 22:40:46 31° NW 22:46:07 10° NNE night (unlit)
22 Nov - 00:25:49 10° NW 00:29:10 15° NNW 00:32:27 10° NNE visible
22 Nov - 02:14:32 10° NNW 02:18:09 16° NNE 02:21:44 10° NE visible
22 Nov - 04:00:44 10° NNW 04:06:17 39° NE 04:11:43 10° ESE visible
22 Nov - 05:47:08 10° NW 05:52:49 50° WSW 05:58:23 10° S visible
22 Nov - 19:12:59 10° SSE 19:17:29 21° ESE 19:21:55 10° ENE night (unlit)
22 Nov - 20:56:55 10° SW 21:03:12 83° NW 21:09:19 10° NE night (unlit)
22 Nov - 22:45:25 10° W 22:50:27 25° NNW 22:55:23 10° NNE night (unlit)
